BBC05C LOWS-LOWG

Flight info

Callsign BBC05C
Flight time 0h 33m
Altitude 19000
Route VERDA DCT ABIRI ABIRI2M
Aircraft B738/M-SDE2E3FGHIRWXY/LB1

Departure

Time 2026-05-06 18:15
Airport Salzburg Airport (LOWS)

Arrival

Time 2026-05-06 18:48
Airport Graz Airport (LOWG)
Time Latitude Longitude Altitude Speed Heading
2026-05-06 17:38 47.79094 12.99945 1420 ft 0 kts 282°
2026-05-06 18:02 47.79093 12.99950 1420 ft 2 kts 282°
2026-05-06 18:02 47.79090 12.99972 1420 ft 2 kts 282°
2026-05-06 18:02 47.79087 12.99994 1421 ft 2 kts 282°
2026-05-06 18:03 47.79084 13.00016 1421 ft 2 kts 303°
2026-05-06 18:03 47.79077 13.00026 1421 ft 0 kts 333°
2026-05-06 18:03 47.79073 13.00028 1421 ft 0 kts 341°
2026-05-06 18:06 47.79080 13.00025 1420 ft 3 kts 339°
2026-05-06 18:06 47.79118 13.00002 1420 ft 7 kts 337°
2026-05-06 18:06 47.79180 12.99961 1420 ft 10 kts 335°
2026-05-06 18:06 47.79234 12.99925 1420 ft 7 kts 337°
2026-05-06 18:07 47.79272 12.99903 1420 ft 4 kts 344°
2026-05-06 18:07 47.79290 12.99907 1420 ft 2 kts 30°
2026-05-06 18:07 47.79305 12.99927 1420 ft 3 kts 46°
2026-05-06 18:07 47.79324 12.99962 1420 ft 4 kts 59°
2026-05-06 18:08 47.79340 13.00010 1420 ft 5 kts 66°
2026-05-06 18:08 47.79350 13.00068 1420 ft 5 kts 89°
2026-05-06 18:08 47.79330 13.00124 1420 ft 6 kts 141°
2026-05-06 18:08 47.79287 13.00160 1420 ft 7 kts 154°
2026-05-06 18:09 47.79237 13.00193 1420 ft 8 kts 158°
2026-05-06 18:09 47.79183 13.00227 1420 ft 8 kts 157°
2026-05-06 18:09 47.79130 13.00261 1420 ft 7 kts 156°
2026-05-06 18:09 47.79092 13.00286 1420 ft 5 kts 158°
2026-05-06 18:10 47.79062 13.00303 1420 ft 5 kts 158°
2026-05-06 18:10 47.79021 13.00329 1420 ft 7 kts 156°
2026-05-06 18:10 47.78962 13.00367 1421 ft 10 kts 157°
2026-05-06 18:10 47.78887 13.00415 1420 ft 12 kts 157°
2026-05-06 18:11 47.78797 13.00471 1420 ft 14 kts 157°
2026-05-06 18:11 47.78698 13.00534 1420 ft 16 kts 156°
2026-05-06 18:11 47.78588 13.00603 1420 ft 18 kts 157°
2026-05-06 18:11 47.78484 13.00672 1421 ft 13 kts 159°
2026-05-06 18:12 47.78393 13.00724 1421 ft 13 kts 156°
2026-05-06 18:12 47.78307 13.00781 1420 ft 13 kts 155°
2026-05-06 18:12 47.78237 13.00837 1420 ft 9 kts 144°
2026-05-06 18:12 47.78198 13.00895 1420 ft 6 kts 122°
2026-05-06 18:13 47.78187 13.00934 1420 ft 0 kts 95°
2026-05-06 18:13 47.78186 13.00947 1420 ft 3 kts 90°
2026-05-06 18:14 47.78199 13.01018 1420 ft 10 kts 63°
2026-05-06 18:14 47.78269 13.01067 1421 ft 14 kts 332°
2026-05-06 18:14 47.78474 13.00938 1421 ft 79 kts 337°
2026-05-06 18:14 47.79313 13.00404 1527 ft 172 kts 336°
2026-05-06 18:15 47.80492 12.99651 2510 ft 195 kts 338°
2026-05-06 18:15 47.81809 12.98996 3653 ft 215 kts 343°
2026-05-06 18:15 47.83324 12.98256 4727 ft 239 kts 340°
2026-05-06 18:15 47.84829 12.97360 6127 ft 243 kts 337°
2026-05-06 18:16 47.86424 12.96382 7328 ft 256 kts 339°
2026-05-06 18:16 47.88076 12.95505 8510 ft 248 kts 342°
2026-05-06 18:16 47.89733 12.95103 9664 ft 246 kts
2026-05-06 18:16 47.91276 12.96051 10671 ft 250 kts 41°
2026-05-06 18:17 47.92231 12.98220 11718 ft 258 kts 69°
2026-05-06 18:17 47.92816 13.00766 12760 ft 264 kts 71°
2026-05-06 18:17 47.93413 13.03324 13780 ft 259 kts 73°
2026-05-06 18:17 47.93724 13.05903 14810 ft 253 kts 86°
2026-05-06 18:18 47.93707 13.08490 15833 ft 256 kts 94°
2026-05-06 18:18 47.93550 13.11125 16865 ft 258 kts 97°
2026-05-06 18:18 47.93233 13.13738 17897 ft 258 kts 102°
2026-05-06 18:18 47.92930 13.16380 18839 ft 262 kts 96°
2026-05-06 18:19 47.92518 13.19106 19042 ft 276 kts 115°
2026-05-06 18:19 47.91500 13.21536 19007 ft 274 kts 122°
2026-05-06 18:19 47.90691 13.24102 19002 ft 272 kts 108°
2026-05-06 18:19 47.90076 13.26773 19003 ft 272 kts 110°
2026-05-06 18:20 47.89384 13.29370 19000 ft 272 kts 112°
2026-05-06 18:20 47.88640 13.32005 18999 ft 272 kts 112°
2026-05-06 18:20 47.87899 13.34593 18999 ft 272 kts 113°
2026-05-06 18:20 47.87157 13.37149 19000 ft 272 kts 113°
2026-05-06 18:21 47.86381 13.39782 18999 ft 272 kts 113°
2026-05-06 18:21 47.85627 13.42332 19000 ft 272 kts 113°
2026-05-06 18:21 47.84861 13.44911 18999 ft 272 kts 113°
2026-05-06 18:21 47.84093 13.47493 18999 ft 272 kts 114°
2026-05-06 18:22 47.83329 13.50053 18999 ft 272 kts 114°
2026-05-06 18:22 47.82558 13.52634 18999 ft 272 kts 114°
2026-05-06 18:22 47.81781 13.55233 18999 ft 272 kts 114°
2026-05-06 18:22 47.81015 13.57790 18999 ft 272 kts 114°
2026-05-06 18:23 47.80242 13.60368 18999 ft 272 kts 114°
2026-05-06 18:23 47.79469 13.62944 18999 ft 272 kts 114°
2026-05-06 18:23 47.78706 13.65483 18993 ft 271 kts 114°
2026-05-06 18:23 47.77931 13.68061 18622 ft 271 kts 114°
2026-05-06 18:24 47.77161 13.70617 18280 ft 269 kts 114°
2026-05-06 18:24 47.76395 13.73161 17941 ft 268 kts 114°
2026-05-06 18:24 47.75639 13.75664 17601 ft 266 kts 114°
2026-05-06 18:24 47.74869 13.78215 17251 ft 265 kts 114°
2026-05-06 18:25 47.74127 13.80669 17007 ft 260 kts 114°
2026-05-06 18:25 47.73382 13.83130 16997 ft 260 kts 114°
2026-05-06 18:25 47.72622 13.85638 17004 ft 264 kts 114°
2026-05-06 18:25 47.71874 13.88106 17000 ft 264 kts 114°
2026-05-06 18:26 47.71109 13.90626 16999 ft 264 kts 114°
2026-05-06 18:26 47.70354 13.93111 16999 ft 264 kts 114°
2026-05-06 18:26 47.69601 13.95588 16999 ft 264 kts 114°
2026-05-06 18:26 47.68843 13.98077 16999 ft 264 kts 114°
2026-05-06 18:27 47.68073 14.00604 16999 ft 264 kts 114°
2026-05-06 18:27 47.67314 14.03090 16999 ft 264 kts 114°
2026-05-06 18:27 47.66558 14.05569 16999 ft 264 kts 114°
2026-05-06 18:27 47.65796 14.08061 16999 ft 264 kts 114°
2026-05-06 18:28 47.65032 14.10558 16999 ft 264 kts 114°
2026-05-06 18:28 47.64271 14.13040 16999 ft 264 kts 114°
2026-05-06 18:28 47.63519 14.15495 16999 ft 264 kts 114°
2026-05-06 18:28 47.62750 14.18000 16999 ft 264 kts 114°
2026-05-06 18:29 47.61990 14.20475 17000 ft 264 kts 114°
2026-05-06 18:29 47.61227 14.22954 16999 ft 264 kts 114°
2026-05-06 18:29 47.60471 14.25413 16999 ft 264 kts 114°
2026-05-06 18:29 47.59696 14.27926 16999 ft 264 kts 114°
2026-05-06 18:30 47.58934 14.30398 16996 ft 263 kts 114°
2026-05-06 18:30 47.58184 14.32826 16653 ft 263 kts 114°
2026-05-06 18:30 47.57428 14.35274 16312 ft 261 kts 114°
2026-05-06 18:30 47.56663 14.37745 15978 ft 259 kts 114°
2026-05-06 18:31 47.55918 14.40151 15645 ft 258 kts 114°
2026-05-06 18:31 47.55164 14.42583 15310 ft 257 kts 114°
2026-05-06 18:31 47.54420 14.44983 14978 ft 255 kts 114°
2026-05-06 18:31 47.53671 14.47396 14645 ft 254 kts 114°
2026-05-06 18:32 47.52936 14.49759 14317 ft 253 kts 114°
2026-05-06 18:32 47.52198 14.52131 13990 ft 251 kts 114°
2026-05-06 18:32 47.51473 14.54459 13666 ft 250 kts 114°
2026-05-06 18:32 47.50734 14.56831 13338 ft 249 kts 114°
2026-05-06 18:33 47.50019 14.59122 13020 ft 248 kts 114°
2026-05-06 18:33 47.49294 14.61445 12698 ft 246 kts 114°
2026-05-06 18:33 47.48571 14.63756 12377 ft 245 kts 114°
2026-05-06 18:33 47.47857 14.66038 12060 ft 244 kts 115°
2026-05-06 18:34 47.47150 14.68296 11747 ft 243 kts 115°
2026-05-06 18:34 47.46434 14.70579 11429 ft 242 kts 115°
2026-05-06 18:34 47.45721 14.72853 11028 ft 245 kts 115°
2026-05-06 18:34 47.44997 14.75162 10552 ft 250 kts 115°
2026-05-06 18:35 47.44250 14.77535 10073 ft 254 kts 115°
2026-05-06 18:35 47.43496 14.79933 9594 ft 258 kts 115°
2026-05-06 18:35 47.42741 14.82333 9181 ft 258 kts 115°
2026-05-06 18:35 47.42003 14.84674 9112 ft 244 kts 115°
2026-05-06 18:36 47.41299 14.86907 9126 ft 231 kts 115°
2026-05-06 18:36 47.40613 14.89079 9137 ft 232 kts 115°
2026-05-06 18:36 47.39920 14.91269 9136 ft 233 kts 115°
2026-05-06 18:36 47.39234 14.93440 9135 ft 233 kts 115°
2026-05-06 18:37 47.38539 14.95637 9135 ft 233 kts 115°
2026-05-06 18:37 47.38084 14.97073 9135 ft 233 kts 115°
2026-05-06 18:37 47.37150 15.00017 9135 ft 233 kts 115°
2026-05-06 18:37 47.36465 15.02176 9133 ft 231 kts 115°
2026-05-06 18:38 47.35786 15.04312 8999 ft 226 kts 115°
2026-05-06 18:38 47.35106 15.06453 8600 ft 231 kts 115°
2026-05-06 18:38 47.34415 15.08625 8231 ft 232 kts 115°
2026-05-06 18:38 47.33738 15.10751 8128 ft 221 kts 115°
2026-05-06 18:39 47.33078 15.12820 8129 ft 223 kts 115°
2026-05-06 18:39 47.32406 15.14929 8133 ft 224 kts 115°
2026-05-06 18:39 47.31744 15.17002 8133 ft 224 kts 115°
2026-05-06 18:40 47.30240 15.21096 8134 ft 224 kts 115°
2026-05-06 18:40 47.29584 15.23184 8103 ft 226 kts 115°
2026-05-06 18:40 47.28907 15.25304 7667 ft 231 kts 115°
2026-05-06 18:40 47.28211 15.27481 7223 ft 227 kts 115°
2026-05-06 18:41 47.27557 15.29528 7104 ft 216 kts 115°
2026-05-06 18:41 47.26840 15.31518 7131 ft 220 kts 127°
2026-05-06 18:41 47.25651 15.32913 7152 ft 214 kts 154°
2026-05-06 18:41 47.24344 15.33803 7129 ft 200 kts 154°
2026-05-06 18:42 47.23069 15.34713 6843 ft 201 kts 154°
2026-05-06 18:42 47.21817 15.35603 6488 ft 196 kts 154°
2026-05-06 18:42 47.20622 15.36453 6152 ft 186 kts 154°
2026-05-06 18:42 47.19437 15.37295 5790 ft 184 kts 154°
2026-05-06 18:43 47.18314 15.38093 5433 ft 177 kts 154°
2026-05-06 18:43 47.17208 15.38797 5070 ft 170 kts 163°
2026-05-06 18:43 47.16062 15.39263 4726 ft 162 kts 164°
2026-05-06 18:43 47.15037 15.39690 4620 ft 151 kts 164°
2026-05-06 18:44 47.14004 15.40119 4643 ft 154 kts 164°
2026-05-06 18:44 47.12972 15.40547 4627 ft 149 kts 164°
2026-05-06 18:44 47.12009 15.40947 4402 ft 138 kts 164°
2026-05-06 18:44 47.11076 15.41334 3866 ft 141 kts 164°
2026-05-06 18:45 47.10151 15.41718 3378 ft 140 kts 164°
2026-05-06 18:45 47.09215 15.42107 3077 ft 135 kts 164°
2026-05-06 18:45 47.08312 15.42436 2976 ft 131 kts 168°
2026-05-06 18:45 47.07702 15.42599 2887 ft 135 kts 172°
2026-05-06 18:46 47.06419 15.42466 2710 ft 142 kts 191°
2026-05-06 18:46 47.05431 15.42196 2603 ft 143 kts 184°
2026-05-06 18:46 47.04454 15.42362 2347 ft 135 kts 165°
2026-05-06 18:46 47.03578 15.42719 1949 ft 130 kts 165°
2026-05-06 18:47 47.02679 15.42998 1602 ft 131 kts 170°
2026-05-06 18:47 47.01805 15.43223 1414 ft 128 kts 168°
2026-05-06 18:47 47.00906 15.43473 1296 ft 137 kts 170°
2026-05-06 18:47 46.99971 15.43710 1124 ft 126 kts 170°
2026-05-06 18:48 46.99270 15.43899 1124 ft 67 kts 165°
2026-05-06 18:48 46.99146 15.43948 1124 ft 0 kts 163°
2026-05-06 18:48 46.99147 15.43948 1125 ft 0 kts 163°
2026-05-06 18:48 46.99146 15.43948 1125 ft 0 kts 163°
2026-05-06 18:49 46.99093 15.43970 1125 ft 18 kts 165°
2026-05-06 18:49 46.98959 15.44019 1124 ft 16 kts 168°
2026-05-06 18:49 46.98851 15.44046 1125 ft 17 kts 166°
2026-05-06 18:50 46.98728 15.44078 1125 ft 20 kts 173°
2026-05-06 18:50 46.98552 15.44118 1125 ft 29 kts 169°
2026-05-06 18:50 46.98346 15.44182 1124 ft 30 kts 165°
2026-05-06 18:50 46.98136 15.44231 1125 ft 29 kts 180°
2026-05-06 18:51 46.97955 15.44256 1125 ft 21 kts 172°
2026-05-06 18:51 46.97842 15.44321 1124 ft 13 kts 91°
2026-05-06 18:51 46.97878 15.44339 1124 ft 0 kts 309°
2026-05-06 18:51 46.97908 15.44306 1124 ft 14 kts 330°
2026-05-06 18:52 46.98047 15.44249 1124 ft 26 kts 353°
2026-05-06 18:52 46.98280 15.44196 1124 ft 40 kts 348°
2026-05-06 18:52 46.98585 15.44104 1125 ft 47 kts 349°
2026-05-06 18:52 46.98930 15.44014 1125 ft 51 kts 350°
2026-05-06 18:53 46.99225 15.43945 1125 ft 30 kts 20°
2026-05-06 18:53 46.99351 15.44115 1125 ft 20 kts 47°
2026-05-06 18:53 46.99420 15.44223 1125 ft 10 kts 45°
2026-05-06 18:53 46.99467 15.44258 1124 ft 5 kts
2026-05-06 18:54 46.99497 15.44256 1124 ft 3 kts 351°
2026-05-06 18:54 46.99553 15.44240 1125 ft 9 kts 348°
2026-05-06 18:54 46.99595 15.44242 1125 ft 4 kts 47°
2026-05-06 18:54 46.99599 15.44272 1125 ft 2 kts 108°
2026-05-06 18:55 46.99594 15.44289 1124 ft 1 kts 112°
2026-05-06 18:55 46.99591 15.44301 1125 ft 1 kts 113°
2026-05-06 18:55 46.99587 15.44314 1125 ft 0 kts 113°